Weather in Tapachula

Mexico     14°54′21″N   92°15′53″W
temp.,
°C
wind,
m/s
gust,
m/s
humid.,
%
clouds,
%
prec.,
mm/h
press.,
hPa
HPBL,
m
24 july, sat
sat2401:00+22ne227783 0.3 101637
04:00+22ne226997 0.0 101429
07:00+21ne2267100 0.0 101532
10:00+27s2157100 0.0 1016489
13:00+29ssw3260100 0.0 10151173
16:00+27ssw1179100 1.8 1014581
19:00+23ese119399 8.1 101323
22:00+21ne229399 1.1 101531
25 july, sun
sun2501:00+21ne228841 1.6 101530
04:00+21ne228092 0.0 101327
07:00+21ne2273100 0.0 101329
10:00+27ssw216376 0.0 1014465
13:00+29sw326288 0.0 10131190
16:00+27sw217957 3.3 1011701
19:00+24sse119263 7.8 101241
22:00+21ne229670 7.2 101443
26 july, mon
mon2601:00+20ne329226 10.2 101437
04:00+20ne228861 0.1 101232
07:00+20ne228019 0.1 101231
10:00+27ssw116528 0.0 1013511
13:00+29ssw3263100 0.0 10121159
16:00+26sw2281100 1.9 1011647
19:00+24sse1192100 5.3 101264
22:00+21ene2296100 6.2 101450
27 july, tue
tue2701:00+20ne329598 12.9 101544
04:00+20nne2291100 0.4 101329
07:00+19ne2286100 0.4 101432
10:00+26ssw116887 0.0 1015552
13:00+28sw326547 0.1 10141212
16:00+26sw228453 1.9 1012543
19:00+23se129440 7.9 101359
22:00+21ne229611 5.9 101537
28 july, wed
wed2801:00+20ne229342 6.7 101432
04:00+19ne22946 3.0 101335
07:00+19ne229196 3.1 101430
10:00+26sw117376 0.0 1014494
13:00+26ssw228367 1.6 1013695
16:00+25s1187100 7.4 1012396
19:00+22wnw1295100 15.1 101273
22:00+21ene119529 1.1 101320